Location: Newark
(27.9675°N, 86.8869°E)
Time: 05:46:01
(UTC+00:00)

Envisat - Visible Passes

Search period start: 22 September 2019 00:00
Search period end: 02 October 2019 00:00
Orbit: 764 x 766 km, 98.1° (Epoch: 21 September)

Date Brightness Start Highest point End Pass type
(mag) Time Alt. Az. Time Alt. Az. Time Alt. Az.
22 Sep 4.5 13:05:11 10° SSW 13:09:53 39° W 13:14:37 10° NNW visible
23 Sep 3.0 12:28:03 10° SSE 12:33:07 82° ENE 12:38:12 10° N visible
24 Sep 5.6 13:31:47 10° SW 13:35:29 20° W 13:39:12 10° NW visible
25 Sep 3.9 12:53:42 10° S 12:58:36 51° W 13:03:33 10° NNW visible
27 Sep 5.2 13:19:57 10° SSW 13:24:11 27° W 13:28:25 10° NW visible
28 Sep 3.4 12:42:19 10° S 12:47:20 69° WSW 12:52:25 10° NNW visible
29 Sep 6.0 13:47:20 10° SW 13:49:49 14° W 13:52:19 10° WNW visible
30 Sep 4.7 13:08:17 10° SSW 13:12:53 35° W 13:17:29 10° NNW visible
01 Oct 3.0 12:31:02 10° SSE 12:36:05 90° SW 12:41:12 10° NNW visible
